| time (UTC) | temp F | wind direction | speed knots | gust knots | rain 1hr in | rain 24hr in | rain mn in | humidity % | barometer mb |
| 20260507232101 | 48 | 290 | 0.0 | 1.7 | 0.00 | 0.00 | 0.00 | 72 | 1012.2 |
| 20260507231056 | 48 | 210 | 0.0 | 1.7 | 0.00 | 0.00 | 0.00 | 72 | 1012.2 |
| 20260507230100 | 48 | 144 | 0.0 | 1.7 | 0.00 | 0.00 | 0.00 | 71 | 1012.2 |
| 20260507225057 | 49 | 191 | 0.0 | 1.7 | 0.00 | 0.00 | 0.00 | 71 | 1012.2 |
| 20260507224121 | 49 | 0 | 0.0 | 1.7 | 0.00 | 0.00 | 0.00 | 71 | 1012.2 |
| 20260507223056 | 49 | 136 | 0.0 | 1.7 | 0.00 | 0.00 | 0.00 | 71 | 1012.2 |
| 20260507222100 | 50 | 321 | 0.9 | 2.6 | 0.00 | 0.00 | 0.00 | 70 | 1012.2 |
| 20260507221057 | 50 | 166 | 0.0 | 1.7 | 0.00 | 0.00 | 0.00 | 70 | 1012.2 |
| 20260507220100 | 51 | 248 | 0.9 | 1.7 | 0.00 | 0.00 | 0.00 | 70 | 1012.1 |
| 20260507215056 | 51 | 242 | 0.9 | 4.3 | 0.00 | 0.00 | 0.00 | 70 | 1012.1 |
| 20260507214200 | 51 | 108 | 0.9 | 4.3 | 0.00 | 0.00 | 0.00 | 69 | 1012.2 |
| 20260507213036 | 52 | 214 | 0.9 | 4.3 | 0.00 | 0.00 | 0.00 | 69 | 1012.2 |
| 20260507212201 | 52 | 199 | 1.7 | 4.3 | 0.00 | 0.00 | 0.00 | 69 | 1012.2 |
| 20260507211136 | 53 | 187 | 0.9 | 4.3 | 0.00 | 0.00 | 0.00 | 67 | 1012.1 |
| 20260507210120 | 53 | 206 | 0.9 | 3.5 | 0.00 | 0.00 | 0.00 | 66 | 1012.1 |
| 20260507205037 | 53 | 176 | 3.5 | 9.6 | 0.00 | 0.00 | 0.00 | 66 | 1012.0 |
| 20260507204101 | 53 | 213 | 2.6 | 6.1 | 0.00 | 0.00 | 0.00 | 65 | 1012.0 |
| 20260507203056 | 53 | 168 | 2.6 | 7.0 | 0.00 | 0.00 | 0.00 | 65 | 1012.0 |
| 20260507202201 | 54 | 195 | 2.6 | 7.0 | 0.00 | 0.00 | 0.00 | 65 | 1011.8 |
| 20260507201117 | 54 | 187 | 3.5 | 8.7 | 0.00 | 0.00 | 0.00 | 65 | 1011.7 |
| 20260507200120 | 54 | 226 | 3.5 | 7.8 | 0.00 | 0.00 | 0.00 | 64 | 1011.6 |
| 20260507195037 | 54 | 194 | 3.5 | 7.0 | 0.00 | 0.00 | 0.00 | 64 | 1011.5 |
| 20260507194100 | 54 | 197 | 3.5 | 7.8 | 0.00 | 0.00 | 0.00 | 64 | 1011.5 |
| 20260507193056 | 54 | 170 | 3.5 | 7.8 | 0.00 | 0.00 | 0.00 | 63 | 1011.3 |
| 20260507192121 | 55 | 187 | 3.5 | 7.0 | 0.00 | 0.00 | 0.00 | 60 | 1011.3 |
| 20260507191036 | 55 | 197 | 4.3 | 9.6 | 0.00 | 0.00 | 0.00 | 59 | 1011.3 |
| 20260507190101 | 55 | 217 | 3.5 | 9.6 | 0.00 | 0.00 | 0.00 | 59 | 1011.3 |
| 20260507185037 | 55 | 179 | 3.5 | 9.6 | 0.00 | 0.00 | 0.00 | 59 | 1011.3 |
| 20260507184141 | 55 | 194 | 3.5 | 7.0 | 0.00 | 0.00 | 0.00 | 59 | 1011.3 |
| 20260507183037 | 55 | 234 | 2.6 | 7.0 | 0.00 | 0.00 | 0.00 | 59 | 1011.3 |
| 20260507182241 | 55 | 197 | 3.5 | 7.8 | 0.00 | 0.00 | 0.00 | 59 | 1011.2 |
| 20260507181117 | 55 | 206 | 2.6 | 5.2 | 0.00 | 0.00 | 0.00 | 59 | 1011.2 |
| 20260507180100 | 55 | 219 | 1.7 | 4.3 | 0.00 | 0.00 | 0.00 | 60 | 1011.2 |
| 20260507175037 | 55 | 168 | 1.7 | 7.0 | 0.00 | 0.00 | 0.00 | 61 | 1011.2 |
| 20260507174140 | 56 | 221 | 0.9 | 1.7 | 0.00 | 0.00 | 0.00 | 60 | 1011.2 |
| 20260507173037 | 56 | 191 | 1.7 | 4.3 | 0.00 | 0.00 | 0.00 | 60 | 1011.3 |
| 20260507172101 | 56 | 245 | 1.7 | 6.1 | 0.00 | 0.00 | 0.00 | 62 | 1011.2 |
| 20260507171056 | 55 | 211 | 1.7 | 3.5 | 0.00 | 0.00 | 0.00 | 62 | 1011.3 |
| 20260507170101 | 55 | 238 | 0.9 | 3.5 | 0.00 | 0.00 | 0.00 | 62 | 1011.3 |
| 20260507165057 | 54 | 193 | 1.7 | 4.3 | 0.00 | 0.00 | 0.00 | 66 | 1011.4 |
| 20260507164101 | 54 | 244 | 0.9 | 3.5 | 0.00 | 0.00 | 0.00 | 67 | 1011.4 |
| 20260507163117 | 54 | 212 | 1.7 | 4.3 | 0.00 | 0.00 | 0.00 | 67 | 1011.6 |
| 20260507162121 | 54 | 221 | 3.5 | 6.1 | 0.00 | 0.00 | 0.00 | 66 | 1011.6 |
| 20260507161037 | 54 | 214 | 2.6 | 6.1 | 0.00 | 0.00 | 0.00 | 65 | 1011.7 |
| 20260507160101 | 54 | 185 | 3.5 | 7.0 | 0.00 | 0.00 | 0.00 | 64 | 1011.7 |
| 20260507155057 | 54 | 224 | 3.5 | 7.0 | 0.00 | 0.00 | 0.00 | 60 | 1011.7 |
| 20260507154101 | 56 | 232 | 6.1 | 13.9 | 0.00 | 0.00 | 0.00 | 56 | 1011.8 |
| 20260507153037 | 57 | 189 | 4.3 | 12.2 | 0.00 | 0.00 | 0.00 | 55 | 1011.5 |
| 20260507152201 | 57 | 182 | 4.3 | 9.6 | 0.00 | 0.00 | 0.00 | 56 | 1011.5 |
| 20260507151036 | 57 | 210 | 4.3 | 8.7 | 0.00 | 0.00 | 0.00 | 57 | 1011.6 |
| 20260507150101 | 57 | 246 | 4.3 | 9.6 | 0.00 | 0.00 | 0.00 | 57 | 1011.7 |
| 20260507145057 | 57 | 201 | 4.3 | 9.6 | 0.00 | 0.00 | 0.00 | 57 | 1011.7 |
| 20260507144141 | 56 | 234 | 5.2 | 12.2 | 0.00 | 0.00 | 0.00 | 57 | 1011.8 |
| 20260507143037 | 57 | 198 | 5.2 | 10.4 | 0.00 | 0.00 | 0.00 | 57 | 1011.8 |
| 20260507142121 | 57 | 263 | 4.3 | 7.8 | 0.00 | 0.00 | 0.00 | 58 | 1011.9 |
| 20260507141037 | 57 | 157 | 4.3 | 9.6 | 0.00 | 0.00 | 0.00 | 59 | 1012.0 |
| 20260507140121 | 56 | 171 | 4.3 | 8.7 | 0.00 | 0.00 | 0.00 | 59 | 1012.0 |
| 20260507135037 | 56 | 194 | 4.3 | 7.8 | 0.00 | 0.00 | 0.00 | 59 | 1012.1 |
| 20260507134101 | 56 | 132 | 4.3 | 7.0 | 0.00 | 0.00 | 0.00 | 60 | 1012.1 |
| 20260507133037 | 55 | 209 | 3.5 | 8.7 | 0.00 | 0.00 | 0.00 | 60 | 1012.1 |
| 20260507132101 | 55 | 176 | 5.2 | 9.6 | 0.00 | 0.00 | 0.00 | 60 | 1012.1 |
| 20260507131057 | 55 | 174 | 4.3 | 10.4 | 0.00 | 0.00 | 0.00 | 60 | 1012.2 |
| 20260507130201 | 54 | 168 | 4.3 | 7.8 | 0.00 | 0.00 | 0.00 | 63 | 1012.2 |
| 20260507125037 | 54 | 168 | 4.3 | 8.7 | 0.00 | 0.00 | 0.00 | 63 | 1012.3 |
| 20260507124101 | 54 | 169 | 5.2 | 9.6 | 0.00 | 0.00 | 0.00 | 63 | 1012.4 |
| 20260507123037 | 54 | 164 | 3.5 | 7.0 | 0.00 | 0.00 | 0.00 | 64 | 1012.5 |
| 20260507122101 | 53 | 158 | 2.6 | 5.2 | 0.00 | 0.00 | 0.00 | 64 | 1012.6 |
| 20260507121037 | 53 | 206 | 3.5 | 7.0 | 0.00 | 0.00 | 0.00 | 64 | 1012.6 |
| 20260507120141 | 52 | 192 | 3.5 | 7.0 | 0.00 | 0.00 | 0.00 | 64 | 1012.7 |
| 20260507115117 | 52 | 166 | 2.6 | 5.2 | 0.00 | 0.00 | 0.00 | 63 | 1012.7 |
| 20260507114101 | 52 | 163 | 3.5 | 7.8 | 0.00 | 0.00 | 0.00 | 62 | 1012.7 |
| 20260507113037 | 53 | 193 | 4.3 | 8.7 | 0.00 | 0.00 | 0.00 | 62 | 1012.8 |
| 20260507112121 | 53 | 173 | 3.5 | 6.1 | 0.00 | 0.00 | 0.00 | 63 | 1012.8 |
| 20260507111057 | 54 | 189 | 3.5 | 7.0 | 0.00 | 0.00 | 0.00 | 63 | 1012.8 |
| 20260507105057 | 54 | 179 | 2.6 | 7.8 | 0.00 | 0.00 | 0.00 | 63 | 1012.8 |
| 20260507104101 | 54 | 164 | 3.5 | 7.0 | 0.00 | 0.00 | 0.00 | 61 | 1012.8 |
| 20260507103117 | 55 | 202 | 2.6 | 6.1 | 0.00 | 0.00 | 0.00 | 58 | 1012.8 |
| 20260507102101 | 55 | 161 | 2.6 | 7.0 | 0.00 | 0.00 | 0.00 | 58 | 1012.7 |
| 20260507101037 | 55 | 202 | 2.6 | 7.0 | 0.00 | 0.00 | 0.00 | 57 | 1012.7 |
| 20260507095037 | 54 | 120 | 1.7 | 7.0 | 0.00 | 0.00 | 0.00 | 62 | 1012.6 |
| 20260507094121 | 53 | 3 | 2.6 | 4.3 | 0.00 | 0.00 | 0.00 | 62 | 1012.6 |
| 20260507093057 | 53 | 356 | 2.6 | 5.2 | 0.00 | 0.00 | 0.00 | 61 | 1012.6 |
| 20260507092101 | 53 | 14 | 2.6 | 5.2 | 0.00 | 0.00 | 0.00 | 61 | 1012.7 |
| 20260507091137 | 53 | 172 | 2.6 | 4.3 | 0.00 | 0.00 | 0.00 | 61 | 1012.7 |
| 20260507085117 | 53 | 280 | 1.7 | 4.3 | 0.00 | 0.00 | 0.00 | 62 | 1012.8 |
| 20260507084101 | 53 | 233 | 2.6 | 6.1 | 0.00 | 0.00 | 0.00 | 61 | 1012.8 |
| 20260507083117 | 53 | 4 | 2.6 | 4.3 | 0.00 | 0.00 | 0.00 | 63 | 1012.8 |
| 20260507082121 | 52 | 1 | 2.6 | 5.2 | 0.00 | 0.00 | 0.00 | 64 | 1012.8 |
| 20260507081037 | 51 | 10 | 2.6 | 5.2 | 0.00 | 0.00 | 0.00 | 64 | 1012.8 |
| 20260507075057 | 51 | 42 | 2.6 | 5.2 | 0.00 | 0.00 | 0.00 | 64 | 1013.0 |
| 20260507074121 | 51 | 349 | 1.7 | 4.3 | 0.00 | 0.00 | 0.00 | 65 | 1013.0 |
| 20260507073037 | 50 | 38 | 1.7 | 6.1 | 0.00 | 0.00 | 0.00 | 64 | 1013.0 |
| 20260507072101 | 50 | 340 | 1.7 | 4.3 | 0.00 | 0.00 | 0.00 | 66 | 1013.0 |
| 20260507071057 | 49 | 191 | 2.6 | 5.2 | 0.00 | 0.00 | 0.00 | 67 | 1012.9 |
| 20260507070101 | 49 | 211 | 1.7 | 5.2 | 0.00 | 0.00 | 0.00 | 69 | 1012.9 |
| 20260507065137 | 49 | 145 | 0.9 | 4.3 | 0.00 | 0.00 | 0.00 | 70 | 1012.9 |
| 20260507064121 | 48 | 345 | 0.0 | 1.7 | 0.00 | 0.00 | 0.00 | 70 | 1013.0 |
| 20260507063117 | 48 | 201 | 0.9 | 2.6 | 0.00 | 0.00 | 0.00 | 70 | 1013.0 |
| 20260507062222 | 47 | 309 | 0.9 | 1.7 | 0.00 | 0.00 | 0.00 | 70 | 1013.0 |
| 20260507061037 | 47 | 4 | 0.0 | 1.7 | 0.00 | 0.00 | 0.00 | 71 | 1013.0 |
| 20260507055037 | 46 | 0.0 | 0.9 | 0.00 | 0.00 | 0.00 | 72 | 1013.0 | |
| 20260507054101 | 45 | 0.0 | 0.9 | 0.00 | 0.00 | 0.00 | 74 | 1013.0 | |
| 20260507053037 | 45 | 0.0 | 0.9 | 0.00 | 0.00 | 0.00 | 76 | 1013.0 | |
| 20260507052142 | 45 | 0.0 | 0.9 | 0.00 | 0.00 | 0.00 | 76 | 1013.1 | |
| 20260507051117 | 45 | 0.0 | 0.0 | 0.00 | 0.00 | 0.00 | 75 | 1013.0 | |
| 20260507050141 | 44 | 0.0 | 0.0 | 0.00 | 0.00 | 0.00 | 75 | 1013.0 | |
| 20260507044122 | 45 | 180 | 0.0 | 0.9 | 0.00 | 0.00 | 0.00 | 74 | 1013.0 |
| 20260507043057 | 45 | 0.0 | 0.9 | 0.00 | 0.00 | 0.00 | 74 | 1013.1 | |
| 20260507042101 | 45 | 0 | 0.0 | 1.7 | 0.00 | 0.00 | 0.00 | 74 | 1013.0 |
| 20260507041037 | 45 | 0 | 0.0 | 1.7 | 0.00 | 0.00 | 0.00 | 74 | 1013.0 |
| 20260507040121 | 45 | 0 | 0.0 | 1.7 | 0.00 | 0.00 | 0.00 | 74 | 1013.0 |
| 20260507035058 | 45 | 357 | 0.9 | 1.7 | 0.00 | 0.00 | 0.00 | 74 | 1013.0 |
| 20260507034201 | 45 | 354 | 0.9 | 1.7 | 0.00 | 0.00 | 0.00 | 73 | 1013.1 |
| 20260507033057 | 45 | 0 | 0.0 | 1.7 | 0.00 | 0.00 | 0.00 | 73 | 1013.2 |
| 20260507032102 | 45 | 338 | 0.0 | 1.7 | 0.00 | 0.00 | 0.00 | 73 | 1013.3 |
| 20260507031037 | 45 | 0 | 0.0 | 1.7 | 0.00 | 0.00 | 0.00 | 73 | 1013.3 |
| 20260507030121 | 45 | 4 | 0.0 | 1.7 | 0.00 | 0.00 | 0.00 | 73 | 1013.3 |
| 20260507025038 | 45 | 15 | 0.9 | 1.7 | 0.00 | 0.00 | 0.00 | 73 | 1013.4 |
| 20260507024122 | 45 | 24 | 0.9 | 1.7 | 0.00 | 0.00 | 0.00 | 72 | 1013.4 |
| 20260507023037 | 45 | 354 | 0.0 | 1.7 | 0.00 | 0.00 | 0.00 | 72 | 1013.4 |
| 20260507022101 | 45 | 0 | 0.0 | 1.7 | 0.00 | 0.00 | 0.00 | 72 | 1013.4 |
| 20260507021138 | 45 | 3 | 0.9 | 1.7 | 0.00 | 0.00 | 0.00 | 72 | 1013.4 |
| 20260507020202 | 45 | 343 | 0.0 | 1.7 | 0.00 | 0.00 | 0.00 | 72 | 1013.5 |
| 20260507015037 | 45 | 349 | 0.0 | 1.7 | 0.00 | 0.00 | 0.00 | 71 | 1013.5 |
| 20260507014141 | 45 | 0 | 0.9 | 1.7 | 0.00 | 0.00 | 0.00 | 71 | 1013.5 |
| 20260507013057 | 45 | 3 | 0.9 | 1.7 | 0.00 | 0.00 | 0.00 | 71 | 1013.6 |
| 20260507012102 | 45 | 0 | 0.9 | 1.7 | 0.00 | 0.00 | 0.00 | 71 | 1013.7 |
| 20260507010141 | 45 | 10 | 0.9 | 1.7 | 0.00 | 0.00 | 0.00 | 68 | 1013.7 |
| 20260507005118 | 46 | 180 | 0.9 | 2.6 | 0.00 | 0.00 | 0.00 | 65 | 1013.8 |
| 20260507004102 | 46 | 222 | 0.9 | 2.6 | 0.00 | 0.00 | 0.00 | 65 | 1013.9 |
| 20260507003037 | 46 | 294 | 0.9 | 2.6 | 0.00 | 0.00 | 0.00 | 64 | 1014.0 |
| 20260507002142 | 46 | 18 | 0.9 | 1.7 | 0.00 | 0.00 | 0.00 | 64 | 1014.0 |
| 20260507001058 | 46 | 249 | 0.9 | 4.3 | 0.00 | 0.00 | 0.00 | 63 | 1014.0 |
| 20260507000101 | 46 | 95 | 1.7 | 4.3 | 0.00 | 0.00 | 0.00 | 63 | 1014.1 |
| 20260506235118 | 46 | 210 | 1.7 | 4.3 | 0.00 | 0.00 | 0.00 | 63 | 1014.2 |
| 20260506234101 | 46 | 174 | 1.7 | 2.6 | 0.00 | 0.00 | 0.00 | 63 | 1014.3 |
| 20260506233118 | 47 | 331 | 0.9 | 4.3 | 0.00 | 0.00 | 0.00 | 63 | 1014.4 |